Regional Weather Roundup
Issued by NWS

Home | Current Version | Previous Version | Graphics & Text | Print | Product List | Glossary On
Versions: 1 2 3 4 5 6 7 8 9 10 11 12 13 14 15 16 17 18 19 20 21 22 23 24 25 26 27 28 29 30 31 32 33 34 35 36 37 38 39 40 41 42 43 44 45 46 47 48 49 50
585
ASUS43 KDMX 301903
RWRIA

WEATHER ROUNDUP FOR IOWA
NATIONAL WEATHER SERVICE DES MOINES IA
200 PM CDT SAT APR 30 2016

NOTE: "FAIR" INDICATES FEW OR NO CLOUDS BELOW 12,000 FEET WITH NO
SIGNIFICANT WEATHER AND/OR OBSTRUCTIONS TO VISIBILITY.

* - THESE STATIONS ARE NOT NWS STATIONS...THUS NOT UNDER NWS
QUALITY CONTROL.  THEY ALSO DO NOT REPORT WEATHER SUCH
AS PRECIPITATION OR FOG.

IAZ001>003-012>014-020>022-031>034-043>046-302000-
   NORTHWEST IOWA

CITY           SKY/WX    TMP DP  RH WIND       PRES   REMARKS
CARROLL *      CLOUDY    46  45  93 E23G32    29.79F
CHEROKEE *     CLOUDY    46  45  97 E18G25    29.84R
DENISON *      PTSUNNY   46  45  93 E21G29    29.75S FOG
LE MARS *      CLOUDY    45  43  93 NE14G24   29.85R FOG
ORANGE CITY *  CLOUDY    45  43  93 E21G29    29.83R
SHELDON *      CLOUDY    45  45 100 NE41G49   29.80R
SIOUX CITY     CLOUDY    48  42  80 E21G29    29.80S
SPENCER        RAIN      45  43  93 NE45G61   29.80F FOG
STORM LAKE *   CLOUDY    45  43  93 E21G28    29.83R
$$

IAZ055>058-069>071-079>083-090>094-302000-
   SOUTHWEST IOWA

CITY           SKY/WX    TMP DP  RH WIND       PRES   REMARKS
ATLANTIC *     LGT RAIN  48  46  93 E15G25    29.74S
AUDUBON *      DRIZZLE   46  45  93 E18       29.77S
CLARINDA *       N/A    N/A N/A N/A MISG        N/A
COUNCIL BLFS * CLOUDY    48  48 100 E14       29.73S FOG
CRESTON *      CLOUDY    50  50 100 E14       29.74R FOG
HARLAN  *      CLOUDY    48  46  93 E24       29.77S FOG
LAMONI         CLOUDY    52  51  97 E6        29.71R
RED OAK *      CLOUDY    50  48  93 E12       29.72R FOG
SHENANDOAH *   DRZL/FOG  52  52 100 E10       29.72S VSB 3/4
$$

IAZ047>049-059>061-072>074-084-302000-
   CENTRAL IOWA

CITY           SKY/WX    TMP DP  RH WIND       PRES   REMARKS
AMES           CLOUDY    48  47  96 E18G25    29.81S
ANKENY *       LGT RAIN  48  48 100 NE14      29.78S
BOONE *        CLOUDY    46  46 100 E21G26    29.79S FOG
CHARITON *     CLOUDY    52  50  93 E12       29.74R
DES MOINES     LGT RAIN  50  46  86 E15       29.77S FOG
GRINNELL*      CLOUDY    46  46 100 NE21      29.80R
KNOXVILLE *    CLOUDY    50  48  93 E13G21    29.74S FOG
MARSHALLTOWN   LGT RAIN  47  45  93 E23G32    29.82R
NEWTON *       CLOUDY    48  48 100 E21G30    29.78S
PELLA *        RAIN      49  48  95 E16G23    29.77S
$$

IAZ004>006-015-016-023>025-035-036-302000-
   NORTH CENTRAL IOWA

CITY           SKY/WX    TMP DP  RH WIND       PRES   REMARKS
ALGONA *       HVY RAIN  45  43  93 NE18G26   29.93S
CLARION *      HVY RAIN  45  45 100 NE24G31   29.86F
ESTHERVILLE    RAIN      43  42  97 NE18      29.96R FOG
FORT DODGE *   CLOUDY    45  39  81 NE25G35   29.75F
MASON CITY     LGT RAIN  43  41  93 NE25G31   29.93R FOG
FOREST CITY *  RAIN      43  41  93 NE16G25   29.93R
WEBSTER CITY * HVY RAIN  46  46 100 NE20G31   29.81F
IOWA FALLS *   LGT RAIN  46  45  93 E10G30    29.86R
$$

IAZ007>011-017>019-026>030-037>042-050>054-066-302000-
   NORTHEAST IOWA

CITY           SKY/WX    TMP DP  RH WIND       PRES   REMARKS
CEDAR RAPIDS   RAIN      48  46  93 E21       29.80S FOG
CHARLES CITY * LGT RAIN  45  45 100 NE21      29.90F
CLINTON *      RAIN      48  47  96 E28       29.83F FOG
DECORAH *      LGT RAIN  46  45  93 NE12G20   29.95S
DUBUQUE        LGT RAIN  47  44  90 E22G38    29.88F FOG
MONTICELLO *   LGT RAIN  48  46  93 E21G33    29.83F
OELWEIN *      LGT RAIN  46  46 100 NE24G32   29.85F
WATERLOO       RAIN      47  44  90 E21       29.87R FOG
$$

IAZ064-065-067-068-078-302000-
   EAST CENTRAL IOWA

CITY           SKY/WX    TMP DP  RH WIND       PRES   REMARKS
DAVENPORT      HVY RAIN  48  46  93 E21G29    29.83R FOG
IOWA CITY      RAIN      49  47  93 E16G24    29.81F FOG
MT. PLEASANT * DRIZZLE   55  55 100 E14       29.75S
MUSCATINE *    LGT RAIN  50  48  93 E13       29.79F
QUAD CITIES    HVY RAIN  50  46  86 E17G28    29.82R VSB 1
$$

IAZ062-063-075>077-085>089-095>099-302000-
   SOUTHEAST IOWA

CITY           SKY/WX    TMP DP  RH WIND       PRES   REMARKS
BURLINGTON     LGT RAIN  54  54 100 E9        29.73F FOG
FAIRFIELD *    CLOUDY    52  52 100 E14G22    29.74S FOG
FORT MADISON * DRIZZLE   55  55 100 E8        29.73F
KEOKUK *       CLOUDY    57  57 100 SE12      29.71S FOG
OSKALOOSA *    CLOUDY    50  48  93 NE17      29.76F FOG
OTTUMWA        CLOUDY    51  50  96 NE13      29.75R FOG
WASHINGTON *   FOG       50  50 100 E17       29.77F VSB 1
$$

ABBREVIATIONS USED IN REMARKS
   TC - TEMPERATURES IN CELSIUS
  WCI - WIND CHILL INDEX
   HX - HEAT INDEX
  VSB - VISIBILITY
$$





USA.gov is the U.S. government's official web portal to all federal, state and local government web resources and services.